Location: CAS DS-2
(40.5268°N, 76.2220°W)
Time: 09:23:39
(UTC-05:00)

ISS - Visible Passes

Search period start: 27 November 2020 00:00
Search period end: 07 December 2020 00:00
Orbit: 418 x 420 km, 51.6° (Epoch: 27 November)

Date Brightness Start Highest point End Pass type
(mag) Time Alt. Az. Time Alt. Az. Time Alt. Az.
27 Nov -1.5 17:37:09 10° NW 17:39:19 16° NNW 17:41:28 10° NNE visible
28 Nov -1.2 18:27:52 10° NNW 18:28:47 12° N 18:28:47 12° N visible
29 Nov -1.4 17:40:01 10° NNW 17:41:36 13° N 17:43:08 10° NNE visible
30 Nov -1.2 18:29:42 10° NNW 18:30:27 13° NNW 18:30:27 13° NNW visible
01 Dec -1.5 17:42:12 10° NNW 17:43:52 13° N 17:44:51 12° NNE visible
02 Dec -1.5 18:31:07 10° NNW 18:32:15 16° NNW 18:32:15 16° NNW visible
03 Dec -2.0 17:43:42 10° NNW 17:46:03 17° NNE 17:46:46 16° NNE visible
04 Dec -2.2 18:32:29 10° NW 18:34:21 27° NNW 18:34:21 27° NNW visible
05 Dec -2.7 17:45:01 10° NW 17:48:01 29° NNE 17:49:06 24° ENE visible
05 Dec -0.5 19:21:43 10° WNW 19:22:05 12° WNW 19:22:05 12° WNW visible
06 Dec -3.4 18:34:00 10° WNW 18:37:02 62° WSW 18:37:02 62° WSW visible
